This is the latest recevied weather packets stored in our database for station/object OK2ZA-6. If no packets are shown the sender has not sent any weather packets the latest 10 day(s).
| Time | Temp. | Humidity | Pressure | Rain* | Wind** | Luminosity | Snow |
|---|---|---|---|---|---|---|---|
| 1788690005 | 18.89° C | 50% | 1027.1 hPa | 0 mm | - | - | - |
| 1788689404 | 18.89° C | 50% | 1027.1 hPa | 0 mm | - | - | - |
| 1788688804 | 18.89° C | 51% | 1027 hPa | 0 mm | - | - | - |
| 1788688204 | 18.33° C | 53% | 1027.1 hPa | 0 mm | - | - | - |
| 1788687604 | 18.33° C | 53% | 1027.1 hPa | 0 mm | - | - | - |
| 1788687033 | 18.33° C | 54% | 1027.2 hPa | 0 mm | - | - | - |
| 1788686404 | 18.33° C | 52% | 1027 hPa | 0 mm | - | - | - |
| 1788685804 | 17.78° C | 55% | 1027 hPa | 0 mm | - | - | - |
| 1788685204 | 17.78° C | 55% | 1026.9 hPa | 0 mm | - | - | - |
| 1788684604 | 17.22° C | 60% | 1026.9 hPa | 0 mm | - | - | - |
| 1788684004 | 16.67° C | 60% | 1027 hPa | 0 mm | - | - | - |
| 1788683430 | 17.22° C | 59% | 1026.9 hPa | 0 mm | - | - | - |
| 1788682804 | 17.22° C | 60% | 1026.9 hPa | 0 mm | - | - | - |
| 1788682204 | 16.67° C | 62% | 1026.9 hPa | 0 mm | - | - | - |
| 1788681640 | 16.11° C | 64% | 1026.7 hPa | 0 mm | - | - | - |
| 1788681004 | 15.56° C | 66% | 1026.8 hPa | 0 mm | - | - | - |
| 1788680404 | 15.56° C | 66% | 1026.7 hPa | 0 mm | - | - | - |
| 1788679804 | 15.56° C | 66% | 1026.6 hPa | 0 mm | - | - | - |
| 1788679204 | 15.56° C | 68% | 1026.4 hPa | 0 mm | - | - | - |
| 1788678604 | 15.56° C | 69% | 1026.2 hPa | 0 mm | - | - | - |
| 1788678004 | 15° C | 69% | 1026.1 hPa | 0 mm | - | - | - |
| 1788677404 | 14.44° C | 71% | 1026.1 hPa | 0 mm | - | - | - |
| 1788676804 | 14.44° C | 72% | 1026.1 hPa | 0 mm | - | - | - |
| 1788676204 | 13.89° C | 73% | 1026 hPa | 0 mm | - | - | - |
| 1788675604 | 13.33° C | 74% | 1026 hPa | 0 mm | - | - | - |
* Rain latest hour (hover to see other rain measurements)
** Current wind speed in m/s (hover to see current wind gust speed)